METOP-SGA1
Last updated on Fri Jun 19 2026 17:09:13 GMT+0000 (Coordinated Universal Time)
1 65159U 25172A 26167.15332899 .00000049 00000+0 42000-4 0 9997
2 65159 98.6644 226.8998 0000902 93.8213 266.3067 14.21509720 43644
Next 0 passes for location: London (51.5072 / 0.1276)
No passes found over London.